Location: Unspecified
(0.0000°N, 0.0000°E)
Time: 20:48:01
(UTC+00:00)

Transit 4A - Pass Details

Date: 25 April 2024
Orbit: 871 x 971 km, 66.8° (Epoch: 22 May)

Event Time Altitude Azimuth Distance (km) Brightness Sun altitude
Rises 10:17:24 0° 207° (SSW) 3,625 10.7 61.7°
Reaches altitude 10° 10:20:01 10° 211° (SSW) 2,665 10.2 62.3°
Maximum altitude 10:26:06 59° 289° (WNW) 1,065 8.9 63.6°
Drops below altitude 10° 10:32:01 10° 8° (N) 2,586 10.6 64.8°
Sets 10:34:31 0° 12° (NNE) 3,510 11.2 65.4°
